www.pogodaiklimat.ru

Погода и климат >> Архив погоды >> Аргентина >> Тандиль


ПОГОДА в Тандиле

  • Прогноз погоды в Тандиле
  • Монитор погоды в Тандиле

АРХИВ ПОГОДЫ в Тандиле

Время (UTC), дата Ветер
(напр.,м/с)
 
Видим.   Явления Облачность Т
(С)
Тd
(С)
f
(%)
Тe
(С)
Тes
(С)
Комфортность P
(гПа)
Po
(гПа)
Тmin
(С)
Tmax
(С)
R
(мм)
R24
(мм)
S
(см)
18 17.03 С 3 20 км {дождь} 8/3 900 м
[Cb calv Ac As Cs]
+23.7 +18.5 73 +28 +33 душно 1010.3 990.1 2
21 17.03 С 3 20 км 6/4 900 м
[Cb cap Ac As Ci fib]
+24.8 +17.0 62 +29 +29 душно 1008.5 988.2
00 18.03 С 2 15 км гроза без осадков 9/5 900 м
[Cb cap Ac As Cs]
+21.3 +18.6 85 +26 +26 душно 1009.5 989.2 +20.1 +25.5
03 18.03 штиль 0 15 км {гроза} 5/5 900 м
[Cu Sc]
+18.8 +17.8 94 +20 +20 1009.7 989.4
06 18.03 З 2 15 км {гроза} ясно +16.4 +16.1 98 +16 +16 1008.4 988.1
09 18.03 З 2 15 км ясно +16.0 +15.3 96 +16 +16 1008.0 987.7
12 18.03 З 3 20 км ясно +19.7 +15.5 77 +22 +25 комфорт 1008.2 987.9 +14.4 +21.3 2
15 18.03 ЮЗ 6 20 км ясно +24.0 +14.3 55 +27 +32 жарко 1008.1 987.9
18 18.03 Ю 8 20 км 1/1 750 м
[Cu hum]
+23.8 +13.5 52 +26 +28 жарко 1008.3 988.0
21 18.03 Ю 7 20 км 1/1 750 м
[Cu hum]
+21.0 +11.8 56 +23 +23 комфорт 1009.4 989.0
00 19.03 Ю 5 15 км ясно +15.2 +10.9 75 +14 +14 1012.4 991.8 +15.2 +25.3
03 19.03 Ю 3 15 км 5/0
[Ac und Cs]
+10.8 +9.4 91 +9 +9 1014.5 993.8
06 19.03 Ю 3 15 км 5/0
[Ac trans Cs]
+9.2 +8.4 95 +7 +7 1015.0 994.2
09 19.03 Ю 3 15 км 8/0
[Ac As]
+10.2 +9.2 94 +8 +8 1016.4 995.6
12 19.03 ЮВ 2 20 км в посл. час дождь 10/1 900 м
[Sc As op]
+13.0 +9.5 79 +12 +13 1018.0 997.0 +8.6 +15.2 0.3
15 19.03 штиль 0 20 км 9/1 1050 м
[Sc As op]
+15.0 +10.9 76 +15 +19 1020.0 999.0
18 19.03 ЮВ 4 20 км 3/1 600 м
[Cu hum Ac As]
+18.6 +5.7 43 +19 +24 1019.1 998.2
21 19.03 Ю 7 20 км 5/5 600 м
[Cu Sc]
+16.4 +6.8 53 +15 +15 1019.7 998.6
00 20.03 Ю 3 15 км 4/0
[Ac As]
+10.6 +6.8 77 +9 +9 1021.7 1000.5 +10.6 +19.5
03 20.03 Ю 6 15 км 1/0
[Ac trans Cs]
+8.1 +7.7 97 +4 +4 1023.0 1001.8
06 20.03 ЮЗ 5 15 км 1/0
[Ci fib]
+7.5 +7.1 97 +4 +4 1023.4 1002.3
09 20.03 ЮЗ 4 15 км ясно +6.8 +5.5 91 +3 +3 1023.2 1002.0
12 20.03 Ю 4 20 км ясно +10.7 +6.7 76 +8 +11 1023.8 1002.5 +5.7 +11.0
15 20.03 Ю 8 20 км 6/6 750 м
[Cu Sc]
+15.8 +6.0 52 +14 +15 1024.1 1002.9
18 20.03 Ю 8 20 км 5/5 750 м
[Cu Sc]
+17.0 +5.8 48 +16 +17 1023.7 1002.5
21 20.03 Ю 5 20 км 9/9 750 м
[Cu Sc]
+14.7 +7.5 62 +13 +13 1024.2 1002.9
00 21.03 Ю 4 15 км 1/1 600 м
[Sc]
+9.2 +7.5 89 +6 +6 1025.2 1003.8 +9.2 +18.3
03 21.03 штиль 0 15 км ясно +7.9 +6.4 90 +7 +7 1025.5 1004.2
06 21.03 З 2 15 км ясно +4.3 +3.6 95 +1 +1 1024.7 1003.4
09 21.03 Ю 3 15 км ясно +4.1 +3.9 99 0 0 1024.2 1002.8
12 21.03 Ю 1 20 км 1/0
[Cs]
+9.9 +8.3 90 +9 +13 1024.7 1003.3 +2.5 +10.0
15 21.03 СЗ 2 20 км 6/6 750 м
[Cu Sc]
+14.8 +6.2 56 +15 +20 1024.0 1002.8
18 21.03 С 2 20 км 5/5 750 м
[Cu Sc]
+17.0 +5.5 47 +17 +22 1022.1 1000.9
21 21.03 С 3 20 км 6/0
[Cs]
+15.8 +7.0 56 +15 +16 1020.7 999.4
00 22.03 В 3 15 км 6/0
[Ac trans Cs]
+11.0 +8.2 83 +9 +9 1020.6 999.4 +9.9 +18.0
03 22.03 штиль 0 15 км 9/0
[Ac trans Cs]
+8.7 +7.2 90 +8 +8 1020.6 999.4
06 22.03 В 2 15 км 9/0
[Ac trans Cs]
+8.9 +6.8 87 +8 +8 1020.3 999.3
09 22.03 В 2 15 км 9/0
[Ac trans Cs]
+7.3 +6.2 93 +5 +5 1020.1 999.0
12 22.03 С 2 20 км 8/0
[Ac und Cs]
+11.3 +9.3 87 +10 +12 1021.2 1000.0 +6.5 +11.3
15 22.03 СЗ 7 20 км 8/6 900 м
[Sc Cs]
+18.8 +9.2 54 +19 +20 1020.0 999.0
18 22.03 С 6 20 км 6/6 960 м
[Sc]
+18.6 +9.9 57 +19 +20 1017.7 996.8
21 22.03 С 4 20 км 5/5 1200 м
[Sc]
+18.9 +9.6 55 +19 +20 1017.0 996.0
00 23.03 С 2 15 км ясно +14.0 +10.2 78 +14 +14 1017.5 996.5 +11.3 +21.0
03 23.03 штиль 0 15 км 3/0
[Ac As]
+12.0 +9.2 83 +11 +11 1017.2 996.4
06 23.03 штиль 0 15 км 1/0
[Ci fib]
+10.2 +8.2 87 +9 +9 1017.1 996.2
09 23.03 штиль 0 15 км 5/0
[Cs]
+9.4 +7.7 89 +9 +9 1016.5 995.6
12 23.03 С 3 15 км дымка 9/0
[Cs]
+12.7 +10.4 86 +11 +14 1016.1 995.2 +8.9 +14.0
15 23.03 С 8 20 км 6/0
[Cs]
+20.7 +11.6 56 +22 +24 комфорт 1014.3 993.6
18 23.03 С 11 20 км 5/5 900 м
[Cu hum Ac trans]
+23.7 +11.4 46 +25 +25 комфорт 1011.2 990.6
21 23.03 С 10 20 км 3/1 1050 м
[Cu med, cong Ci ing]
+22.8 +13.0 54 +26 +26 жарко 1008.4 987.8
00 24.03 Ю 7 12 км гроза, ливневой дождь 9/6 750 м
[Cb cap As op]
+19.5 +15.5 78 +21 +21 комфорт 1008.7 988.1 +12.7 +24.4 3
03 24.03 З 2 15 км зарница {гроза} 3/3 600 м
[Cb cap]
+13.3 +12.4 94 +12 +12 1012.3 991.7
06 24.03 З 4 15 км {гроза} ясно +11.0 +9.0 87 +9 +9 1012.4 991.8 9
09 24.03 З 5 15 км 10/10 240 м
[Sc]
+12.0 +10.1 88 +9 +9 1012.8 992.2
12 24.03 ЮЗ 9 20 км 8/8 540 м
[Sc]
+13.1 +10.2 83 +10 +10 1013.7 993.0 +10.4 +19.5 11
15 24.03 Ю 12 20 км {морось} 9/9 600 м
[Cu Sc]
+15.6 +9.1 65 +13 +13 1015.2 994.4

 

Местоположение метеостанции Тандиль (Аргентина): широта -37.23 долгота -59.25 высота над уровнем моря 175 м.

В архиве по умолчанию представлена погода в Тандиле за последнюю неделю. Архивные данные за месяц целиком и за предыдущие месяцы, начиная с января 2011 года, Вы можете получить, выбрав интересующий диапазон дат из раскрывающегося списка и нажав кнопку "Ввод!".


*Определитесь, кто Вы:
робот инопланетянин человек

Внимание! Время в таблицах - всемирное. Для получения местного времени необходимо прибавить поправку, которая равна -3 ч.

Смотрите также архив погоды в соседних городах и на ближайших метеорологических станциях:

Погода в Азуле (Аргентина) (71 км)
Погода в Лас Флоресе (Аргентина) (130 км)
Погода в Трес Арройос (Аргентина) (151 км)
Погода в Мар-дель-Плате (Аргентина) (167 км)
Погода в Долоресе (Аргентина) (170 км)
Погода в Боливаре (Аргентина) (199 км)
Погода в Эсейсе (Аргентина) (277 км)
Погода в Ла-Плате (Аргентина) (280 км)
Погода в Буэнос-Айресе (Аргентина) (303 км)
Погода в Баия-Бланке (Аргентина) (305 км)

Пояснения к столбцам:

Ветер - указаны скорость ветра в м/с - средняя за 10 мин, порывы в срок и между сроками (в фигурных скобках) и направление, откуда дует ветер: С - северный, СВ - северо-восточный, В - восточный, ЮВ - юго-восточный, Ю - южный, ЮЗ - юго-западный, З - западный, СЗ - северо-западный.
Видимость - горизонтальная дальность видимости в метрах или километрах. При видимости от 1 до 10 км при отсутствии осадков обычно наблюдается дымка, при ухудшении видимости до 1 км и менее - туман. В сухую погоду видимость может ухудшаться дымом, пылью или мглою.
Явления - указаны атмосферные явления, наблюдавшиеся в срок или в последний час перед сроком; фигурными скобками обозначены явления, наблюдавшиеся между сроками (за 1-3 часа до срока); квадратными скобками обозначены град или гололедные отложения с указанием их диаметра в мм.
Облачность - указаны через наклонную черту общая и нижняя облачность в баллах и высота нижней границы облаков в метрах; квадратными скобками обозначены формы облаков: Ci - перистые, Cs - перисто-слоистые, Cc - перисто-кучевые, Ac - высококучевые, As - высокослоистые, Sc - слоисто-кучевые, Ns - слоисто-дождевые, Cu - кучевые, Cb - кучево-дождевые. Подробнее классификацию облаков см. в Атласе облаков (PDF).
T - Температура воздуха - температура, измеренная на высоте 2 м над землей.
Td - Температура точки росы - температура, при понижении до которой содержащийся в воздухе водяной пар достигнет насыщения.
f - Относительная влажность воздуха - влажноcть воздуха, измеренная на высоте 2 м над землей.
Te - Эффективная температура - температура, которую ощущает одетый по сезону человек в тени. Характеристика душности погоды. При расчете учитывается влияние влажности воздуха и скорости ветра на теплоощущения человека.
Tes - Эффективная температура на солнце - температура, которую ощущает человек, с поправкой на солнечный нагрев. Характеристика знойности погоды. Зависит от высоты солнца над горизонтом, облачности и скорости ветра. Ночью, в пасмурную погоду, а также при ветре 12 м/с и более поправка равна нулю.
P - Атмосферное давление - приведенное к уровню моря атмосферное давление.
Po - Атмосферное давление - измеренное на уровне метеостанции атмосферное давление.
Tmin - Минимальная температура - минимум температуры воздуха на высоте 2 м над землей.
Tmax - Максимальная температура - максимум температуры воздуха на высоте 2 м над землей.
R - Количество осадков - Количество выпавших осадков за период времени, мм. При наведении курсора мыши на число - период времени, за который выпало указанное количество осадков.
R24 - Количество осадков - Количество выпавших осадков за 24 часа, мм.
S - Снежный покров - Высота снежного покрова, см. При наведении курсора мыши на число - состояние снежного покрова и степень покрытия местности в баллах.